Bremerton, WA

5:46 PM PST on December 09, 2019 (GMT -0800)
Bremerton National

Weather History for KPWT - August, 2019

Change the Weather History Date:

Tuesday, August 13, 2019

  Actual Average Record
Temperature  
Mean Temperature 70 °F -  
Max Temperature 84 °F 75 °F 91 °F (2002)
Min Temperature 55 °F 50 °F 46 °F (2007)
Cooling Degree Days 4    
Growing Degree Days 20 (Base 50)    
Moisture  
Dew Point 54 °F    
Average Humidity 61    
Maximum Humidity 93    
Minimum Humidity 40    
Precipitation  
Precipitation 0.00 in - - ()
Sea Level Pressure  
Sea Level Pressure 30.14 in    
Wind  
Wind Speed 3 mph (NE)    
Max Wind Speed 10 mph    
Max Gust Speed -    
Visibility 10 miles    
Events      
Averages and records for this station are not official NWS values.
T = Trace of Precipitation, MM = Missing Value Source: NWS Daily Summary

Daily Weather History Graph

Daily Weather History Graph

Search for Another Location

Airport or City:

Astronomy

Aug. 13, 2019 Rise Set
Actual Time 6:04 AM PDT 8:26 PM PDT
Civil Twilight 5:30 AM PDT 9:00 PM PDT
Nautical Twilight 4:47 AM PDT 9:43 PM PDT
Astronomical Twilight 3:58 AM PDT 10:31 PM PDT
Moon 7:52 PM PDT (8/13) 4:01 AM PDT (8/13)
Length of Visible Light 15h 30m
Length of Day
14h 22m
Waxing Gibbous, 97% of the Moon is Illuminated
Aug 13
Waxing Gibbous
Aug 15
Full
Aug 23
Last Quarter
Aug 30
New
Sep 5
First Quarter

Hourly Weather History & Observations

Time (PDT) Temp. Heat Index Dew Point Humidity Pressure Visibility Wind Dir Wind Speed Gust Speed Precip Events Conditions
12:56 AM 63.0 °F - 53.1 °F 70% 30.14 in 10.0 mi Calm Calm - N/A   Clear
1:56 AM 60.1 °F - 54.0 °F 80% 30.15 in 10.0 mi Calm Calm - N/A   Clear
2:56 AM 55.0 °F - 52.0 °F 89% 30.15 in 10.0 mi Calm Calm - N/A   Clear
3:56 AM 61.0 °F - 55.0 °F 81% 30.13 in 10.0 mi ENE 6.9 mph - N/A   Mostly Cloudy
4:56 AM 60.1 °F - 55.0 °F 83% 30.13 in 10.0 mi ENE 5.8 mph - N/A   Clear
5:56 AM 57.9 °F - 54.0 °F 87% 30.14 in 10.0 mi Calm Calm - N/A   Clear
6:56 AM 55.0 °F - 53.1 °F 93% 30.16 in 10.0 mi SSW 3.5 mph - N/A   Clear
7:56 AM 62.1 °F - 55.9 °F 80% 30.15 in 10.0 mi Calm Calm - N/A   Clear
8:56 AM 68.0 °F - 57.0 °F 68% 30.15 in 10.0 mi ENE 4.6 mph - N/A   Clear
9:56 AM 71.1 °F - 55.9 °F 59% 30.16 in 10.0 mi ENE 3.5 mph - N/A   Clear
10:56 AM 73.9 °F - 55.0 °F 52% 30.17 in 10.0 mi Variable 4.6 mph - N/A   Clear
11:56 AM 77.0 °F - 55.0 °F 47% 30.16 in 10.0 mi Calm Calm - N/A   Clear
12:56 PM 80.1 °F 80.1 °F 55.0 °F 42% 30.15 in 6.0 mi Calm Calm - N/A   Haze
1:56 PM 82.0 °F 81.7 °F 57.0 °F 42% 30.14 in 10.0 mi West 3.5 mph - N/A   Partly Cloudy
2:56 PM 84.0 °F 83.3 °F 57.0 °F 40% 30.14 in 10.0 mi Variable 5.8 mph - N/A   Partly Cloudy
3:56 PM 82.0 °F 81.7 °F 57.0 °F 42% 30.13 in 10.0 mi NNE 10.4 mph - N/A   Clear
5:56 PM 79.0 °F - 55.0 °F 44% 30.13 in 10.0 mi NE 10.4 mph - N/A   Clear
6:56 PM 77.0 °F - 54.0 °F 45% 30.12 in 10.0 mi ENE 9.2 mph - N/A   Clear
7:56 PM 75.0 °F - 52.0 °F 44% 30.12 in 10.0 mi NNE 8.1 mph - N/A   Clear
8:56 PM 69.1 °F - 51.1 °F 53% 30.13 in 10.0 mi NE 5.8 mph - N/A   Clear
9:56 PM 68.0 °F - 51.1 °F 55% 30.14 in 10.0 mi NE 4.6 mph - N/A   Clear
10:56 PM 66.9 °F - 50.0 °F 54% 30.15 in 10.0 mi NNE 3.5 mph - N/A   Clear
11:56 PM 68.0 °F - 50.0 °F 52% 30.15 in 10.0 mi North 3.5 mph - N/A   Clear